Location: ??????
(56.0120°N, 39.1740°E)
Time: 21:37:23
(UTC+00:00)

NOSS 2-1 (D) - Pass Details

Date: 14 April 2026
Orbit: 373 x 1667 km, 63.3° (Epoch: 16 May)

Event Time Altitude Azimuth Distance (km) Brightness Sun altitude
Rises 19:02:11 0° 303° (WNW) 2,303 7.8 -18.1°
Reaches altitude 10° 19:04:10 10° 292° (WNW) 1,510 6.4 -18.3°
Maximum altitude 19:07:07 32° 228° (SW) 846 4.2 -18.5°
Enters shadow 19:07:43 30° 207° (SSW) 908 4.2 -18.6°
